Погода Мыс Шведский

Погода Мыс Шведский : погода сейчас, прогноз погоды и архив. Всё, что Вы хотите узнать о погоде Мыс Шведский!

Хотите узнать прогноз погоды Мыс Шведский? Тогда Вам сюда: Погода Мыс Шведский

Поиск расширенной информации на нашем сайте:

Полезная информация: Смотрите информацию миксер китчен айд здесь.

Другие новости

Новости СМИ2

Главная страница сайта

Новости сайта

02.10.2013

Напоминаем, что на нашем новом сайте вы можете получить высокодетализированные прогнозы погоды по пунктам России, СНГ и мира (включающие важные для авиации метеовеличины, такие как направление и скорость ветра, видимость, явления погоды, количество и форма облачности, нижняя и верхняя граница облачности), а также ознакомиться с разнообразными материалами по авиационной метеорологии и подборкой полезных ссылок на эту тему.

Сайт Метеоцентр.Азия посвящён разработке технологий оптимизации авиаметеорологического обслуживания, включая проектирование и перспективное создание нескольких автоматизированных авиаметеорологических систем:
- система выпуска высокодетальных прогностических карт явлений погоды для нижнего воздушного пространства по России и ближнему зарубежью;
- система верификации прогнозов TAF (выпускаемых синоптиками официальных АМСГ РФ и ближнего зарубежья) и AUTOTAF (выпускаемых сайтом Метеоцентр.Азия) - выявление ошибок, онлайн-сопоставление с фактической погодой METAR, автоматическое внесение коррективов в прогнозы при резком отклонении фактической погоды от прогноза, подсчёт оправдываемости прогнозов по элементам и в целом;
- система обработки, анализа и отображения авиаметеорологической информации для применения провайдерами метеорологической информации.

Рекомендуем: Радуга бисера кроше наборы для вышивания бисером иконы.

Погода Мыс Шведский - сегодня

Время (UTC), дата Ветер
(°,м/с) 
Видим.   Явления Облачность Т
(°С)
Тd
(°С)
f(%) Тe
(°С)
Pmin
(гПа)
dP
(гПа)
Po
(мм)
O2
(г/м3)
Тmin Tmax R s Состояние
почвы
15 26.04.17 130 (ЮВ) 20000 м    9/0 верхняя 
[Cs]
-8.6 -12.4 74 -12  1022.2  -0.4  766  320    -6.2       
18 26.04.17 160 (Ю) 10 км    8/0 верхняя 
[Cs]
-11.1 -14.7 75 -17  1021.9  -0.3  766  323           
21 26.04.17 160 (Ю) 8{10}  20000 м  позёмок  ясно 
-12 -14.7 80 -19  1020.8  -1.1  765  324           
00 27.04.17 150 (ЮВ) 8-10{12}  20000 м  позёмок  ясно 
-11.1 -13.9 80 -18  1018.7  -2.1  763  322           
06 27.04.17 100 (В) 12-13{16}  0200 м  сильная метель  6/0 верхняя 
[Cs]
-10.1 -12.1 85 -18  1011.6  -3.9  758  318           
09 27.04.17 110 (В) 13-16{17}  0200 м  сильная метель  10/10 300 м 
[Sc]
-7.1 -8.8 88 -15  1006.8  -4.8  754  313           
12 27.04.17 100 (В) 14-17{19}  0200 м  слаб. снег  10/10 300 м 
[Frnb|Ns]
-5.5 -6.2 95 -13  1003  -3.8  752  310           
15 27.04.17 120 (ЮВ) 10-12{17}  2000 м  метель{снег}  10/10 300 м 
[Sc]
-2.9 -3.9 93 -8  1000.4  -2.6  750  306    -2.8  0.5     
18 27.04.17 260 (З) 8-10{14}  4000 м  слаб. снег  10/10 300 м 
[Frnb|Ns]
-0.9 -1.6 95 -5  1000.8  0.5  750  303           
21 27.04.17 250 (З) 8-10{12}  4000 м  слаб. снег  10/10 300 м 
[Frnb|Ns]
-2.5 -3.1 96 -7  1001.2  0.3  750  305           
00 28.04.17 270 (З) 8-10{11}  4000 м  слаб. снег  10/10 300 м 
[Frnb|Ns]
-3.8 -4.3 96 -9  1001.3  0.1  750  307           
06 28.04.17 020 (С) 4000 м  слаб. снег  10/10 300 м 
[Frnb|Ns]
-3.6 -4.4 94 -8  1003.4  1.6  752  308           
09 28.04.17 030 (СВ) 8-10{11}  4000 м  слаб. снег  10/10 300 м 
[Frnb|Ns]
-4.7 -5.3 96 -10  1006.5  3.1  754  310           
12 28.04.17 030 (СВ) 9-10{11}  4000 м  слаб. снег  10/10 300 м 
[Frnb|Ns]
-4.9 -5.9 93 -11  1009.4  2.9  756  311           
15 28.04.17 020 (С) 10-13{15}  0200 м  сильная метель{снег}  10/10 300 м 
[Sc]
-5.5 -6.6 92 -12  1013.4  759  313    -3.4  0.8     
18 28.04.17 320 (СЗ) 20000 м  {снег}  ясно 
-11.4 -12.7 90 -15  1016.2  2.8  761  321           
21 28.04.17 290 (З) 10 км    10/10 600 м 
[Sc]
-5.8 -6.9 92 -9  1017.4  1.2  762  315           
00 29.04.17 290 (З) 4000 м  слаб. ливневой снег  10/10 300 м кучево-дожд. 
[Cb cap]
-4.1 -5 93 -8  1017.4  762  312           
06 29.04.17 340 (С) 20000 м  {снег}  4/4 600 м 
[Sc]
-4.6 -5.9 91 -9  1020.6  2.7  765  314           
09 29.04.17 310 (СЗ) 20000 м    3/0 верхняя 
[Cs]
-2.7 -5 84 -6  1023.4  2.8  767  313           
12 29.04.17 270 (З) 20000 м    3/0 верхняя 
[Cs]
-1.3 -3 88 -5  1024.1  0.7  767  311           
15 29.04.17 250 (З) 4000 м  слаб. ливневой снег  10/10 300 м кучево-дожд. 
[Cb cap]
-0.5 -1.4 94 -4  1022.6  -1.5  766  310    -0.4  0.2     
18 29.04.17 310 (СЗ) 9-10{12}  4000 м  дымка{ливн. осадки}  10/10 300 м 
[St]
+0.2 -0.4 96 -4  1022.6  766  309           
21 29.04.17 320 (СЗ) 10-12{15}  10 км    10/10 300 м 
[St]
+0.2 -1.5 88 -5  1024.1  1.5  767  309           
00 30.04.17 300 (СЗ) 11-13{16}  10 км    10/10 300 м 
[Sc]
+0.3 -0.5 94 -5  1024.2  0.1  767  309           
Время (UTC), дата Ветер
(°,м/с) 
Видим.   Явления Облачность Т
(°С)
Тd
(°С)
f(%) Тe
(°С)
Pmin
(гПа)
dP
(гПа)
Po
(мм)
O2
(г/м3)
Тmin Tmax R s Состояние
почвы

Для получения пояснительной информации подведите курсор к названию столбца.

ПОГОДА Мыс Шведский - архив

Всё, что Вы хотите узнать о погоде Мыс Шведский - удобно и подробно!

Выберите нужную дату (начиная с 1 января 2015* года) и нажмите кнопку "Найти".
Будут отображены архивные сводки погоды по пункту Мыс Шведский, начиная с указанной даты.


Отображать данные в формате CSV (для использования в таблицах Excel)


Внимание! Наш архив погоды предназначен исключительно для личного некоммерческого использования в познавательных целях. Если Вам необходимы официальные справки о состоянии погоды (для производственных, юридических, коммерческих и т.п. целей), обращайтесь в органы Росгидромета.

*Примечание: данная дата относится к архиву по метеостанциям СССР (Россия, СНГ, Балтия).
Архив по метеостанциям Зарубежной Европы и Азии (кроме Китая) хранится 10 дней, по другим регионам земного шара (Китай, Африка, Америка, Австралия, Океания) - 1 день.

Мыс Шведский - район местоположения метеостанции


Название, широта, долгота, высота метеостанции:
Мыс Шведский 68.6°ш. 56.6°д. 4 м над ур. моря [Российская Федерация]

Дополнительная информация

В oтличие oт бoльшинства пoгoдных сайтoв мы публикуем пoдрoбную метеoинфoрмацию в детальнoм прoфессиoнальнoм фoрмате.

Характеристики температуры и влажнoсти вoздуха измеряются на высoте 2 м в тени вдали oт зданий и деревьев.
Скoрoсть ветра измеряется на высoте 10 м (на урoвне рoста челoвека скoрoсть ветра ниже в 1.5-2 раза). Если метеoстанция нахoдится в гoрoде или в лесу, тo скoрoсть ветра занижена на 2-4 м/с пo сравнению с oткрытым местoм. Скoрoсть ветра над акватoриями крупных рек и oзёр, а также на вершинах хoлмoв на 2-5 м/с выше, чем в oбычных услoвиях.
Атмoсфернoе давление в разных тoчках местнoсти мoжет значительнo oтличаться oт давления на метеoстанции, в зависимoсти oт услoвий рельефа (при пoдъёме на 10 м давление пoнижается примернo на 1 мм рт.ст.).